Location: Göttingen
(51.5413°N, 9.9158°E)
Time: 03:12:55
(UTC+02:00)

Envisat - Pass Details

Date: 26 January 2022
Orbit: 764 x 765 km, 98.2° (Epoch: 22 May)

Event Time Altitude Azimuth Distance (km) Brightness Sun altitude
Rises 05:15:18 0° 15° (NNE) 3,243 6.5 -26.5°
Reaches altitude 10° 05:17:37 10° 18° (NNE) 2,313 5.7 -26.2°
Maximum altitude 05:22:43 72° 103° (ESE) 809 3.2 -25.4°
Drops below altitude 10° 05:27:46 10° 188° (S) 2,297 5.4 -24.6°
Sets 05:30:05 0° 190° (S) 3,219 6.1 -24.2°
